Roseburg, OR

8:34 PM PST on November 11, 2019 (GMT -0800)
Roseburg Regional

Weather History for KRBG - September, 2019

Change the Weather History Date:

Sunday, September 29, 2019

  Actual Average Record
Temperature  
Mean Temperature 50 °F 61 °F  
Max Temperature 57 °F 74 °F 93 °F (1987)
Min Temperature 42 °F 48 °F 35 °F (1983)
Degree Days  
Heating Degree Days 15 5  
Month to date heating degree days 60 62  
Since 1 July heating degree days 65 83  
Cooling Degree Days 0 1  
Month to date cooling degree days 77 65  
Year to date cooling degree days 680 476  
Moisture  
Dew Point 43 °F    
Average Humidity 78    
Maximum Humidity 96    
Minimum Humidity 59    
Precipitation  
Precipitation 0.20 in 0.05 in 0.96 in (2013)
Month to date precipitation 2.55 0.92  
Year to date precipitation 25.32 20.57  
Sea Level Pressure  
Sea Level Pressure 29.87 in    
Wind  
Wind Speed 4 mph (East)    
Max Wind Speed 10 mph    
Max Gust Speed 12 mph    
Visibility 8 miles    
Events Rain    
T = Trace of Precipitation, MM = Missing Value Source: NWS Daily Summary

Daily Weather History Graph

Daily Weather History Graph

Search for Another Location

Airport or City:

Astronomy

Sep. 29, 2019 Rise Set
Actual Time 7:08 AM PDT 6:58 PM PDT
Civil Twilight 6:40 AM PDT 7:26 PM PDT
Nautical Twilight 6:06 AM PDT 7:59 PM PDT
Astronomical Twilight 5:33 AM PDT 8:33 PM PDT
Moon 8:06 AM PDT (9/29) 8:00 PM PDT (9/29)
Length of Visible Light 12h 46m
Length of Day
11h 49m
New Moon, 2% of the Moon is Illuminated
Sep 29
New Moon
Oct 5
First Quarter
Oct 13
Full
Oct 21
Last Quarter
Oct 27
New

Hourly Weather History & Observations

Time (PDT) Temp. Windchill Dew Point Humidity Pressure Visibility Wind Dir Wind Speed Gust Speed Precip Events Conditions
12:53 AM 45.0 °F - 41.0 °F 86% 29.89 in 10.0 mi Calm Calm - N/A   Overcast
1:53 AM 46.0 °F - 42.1 °F 86% 29.90 in 10.0 mi Calm Calm - N/A   Overcast
2:53 AM 45.0 °F 43.5 °F 42.1 °F 90% 29.89 in 10.0 mi South 3.5 mph - N/A   Overcast
3:53 AM 44.1 °F - 41.0 °F 89% 29.88 in 10.0 mi Calm Calm - N/A   Partly Cloudy
4:04 AM 44.1 °F 42.5 °F 41.0 °F 89% 29.87 in 10.0 mi ESE 3.5 mph - N/A   Scattered Clouds
4:38 AM 43.0 °F - 41.0 °F 93% 29.88 in 10.0 mi Calm Calm - N/A   Mostly Cloudy
4:53 AM 42.1 °F 40.2 °F 41.0 °F 96% 29.88 in 10.0 mi South 3.5 mph - N/A   Overcast
5:53 AM 44.1 °F 42.5 °F 42.1 °F 93% 29.88 in 10.0 mi SSW 3.5 mph - N/A   Overcast
6:53 AM 42.1 °F - 41.0 °F 96% 29.87 in 7.0 mi Calm Calm - N/A   Overcast
7:53 AM 43.0 °F - 41.0 °F 93% 29.88 in 6.0 mi Calm Calm - N/A   Overcast
8:53 AM 43.0 °F - 41.0 °F 93% 29.88 in 6.0 mi Calm Calm - 0.00 in Rain Light Rain
9:25 AM 44.1 °F - 41.0 °F 89% 29.88 in 6.0 mi Calm Calm - 0.01 in Rain Light Rain
9:38 AM 43.0 °F - 41.0 °F 93% 29.88 in 5.0 mi Calm Calm - 0.02 in Rain Light Rain
9:53 AM 44.1 °F - 42.1 °F 93% 29.89 in 2.5 mi Calm Calm - 0.04 in Rain Light Rain
10:14 AM 44.1 °F - 42.1 °F 93% 29.88 in 4.0 mi Calm Calm - 0.03 in Rain Light Rain
10:31 AM 44.1 °F - 42.1 °F 93% 29.88 in 5.0 mi Calm Calm - 0.04 in Rain Light Rain
10:53 AM 45.0 °F 42.6 °F 42.1 °F 90% 29.89 in 9.0 mi SE 4.6 mph - 0.05 in Rain Light Rain
11:18 AM 46.0 °F 43.9 °F 44.1 °F 93% 29.87 in 8.0 mi Variable 4.6 mph - 0.00 in Rain Light Rain
11:43 AM 48.9 °F - 45.0 °F 86% 29.85 in 10.0 mi Variable 3.5 mph - 0.00 in   Mostly Cloudy
11:53 AM 50.0 °F - 46.0 °F 86% 29.86 in 10.0 mi South 9.2 mph - 0.00 in   Mostly Cloudy
12:03 PM 51.1 °F - 44.1 °F 77% 29.85 in 10.0 mi Variable 4.6 mph - N/A   Scattered Clouds
12:53 PM 52.0 °F - 44.1 °F 74% 29.86 in 10.0 mi Variable 4.6 mph - N/A   Partly Cloudy
1:44 PM 53.1 °F - 43.0 °F 69% 29.84 in 10.0 mi Variable 3.5 mph - N/A   Overcast
1:53 PM 53.1 °F - 44.1 °F 71% 29.85 in 10.0 mi North 9.2 mph - N/A   Overcast
2:19 PM 54.0 °F - 43.0 °F 66% 29.83 in 10.0 mi North 8.1 mph - N/A   Overcast
2:53 PM 54.0 °F - 43.0 °F 66% 29.84 in 10.0 mi Variable 4.6 mph - N/A   Overcast
3:53 PM 55.0 °F - 43.0 °F 64% 29.84 in 10.0 mi SW 6.9 mph - N/A   Mostly Cloudy
4:53 PM 55.9 °F - 41.0 °F 57% 29.84 in 10.0 mi South 5.8 mph - N/A   Clear
5:53 PM 55.9 °F - 41.0 °F 57% 29.84 in 10.0 mi South 3.5 mph - N/A   Overcast
6:53 PM 55.0 °F - 43.0 °F 64% 29.84 in 10.0 mi NE 3.5 mph - N/A   Overcast
8:34 PM 51.1 °F - 43.0 °F 74% 29.86 in 10.0 mi WNW 5.8 mph - 0.00 in Rain Light Rain
8:44 PM 50.0 °F - 45.0 °F 83% 29.86 in 3.0 mi Calm Calm - 0.03 in Rain Rain
8:51 PM 50.0 °F - 44.6 °F 82% 29.86 in 2.0 mi NNE 4.6 mph - 0.06 in Rain Heavy Rain
8:53 PM 50.0 °F - 45.0 °F 83% 29.87 in 2.5 mi NNE 4.6 mph - 0.07 in Rain Rain
9:02 PM 48.9 °F - 45.0 °F 86% 29.86 in 5.0 mi NNE 4.6 mph - 0.01 in Rain Light Rain
9:53 PM 48.9 °F - 46.0 °F 90% 29.88 in 10.0 mi East 3.5 mph - 0.03 in Rain Light Rain
10:25 PM 48.9 °F - 45.0 °F 86% 29.87 in 10.0 mi NNE 3.5 mph - 0.00 in Rain Light Rain
10:53 PM 48.0 °F - 45.0 °F 89% 29.88 in 10.0 mi Calm Calm - 0.01 in Rain Light Rain
11:06 PM 48.0 °F - 45.0 °F 89% 29.88 in 10.0 mi Calm Calm - 0.00 in Rain Light Rain
11:53 PM 48.0 °F - 45.0 °F 89% 29.89 in 10.0 mi NNE 4.6 mph - 0.00 in   Overcast